This is the latest recevied weather packets stored in our database for station/object W9KHP-1. If no packets are shown the sender has not sent any weather packets the latest 10 day(s).
| Time | Temp. | Humidity | Pressure | Rain* | Wind** | Luminosity | Snow |
|---|---|---|---|---|---|---|---|
| 1777824715 | 16.67° C | 53% | 1022.4 hPa | 0 mm | - | 662 W/m² | - |
| 1777824412 | 15.56° C | 51% | 1022.5 hPa | 0 mm | - | 655 W/m² | - |
| 1777824108 | 15.56° C | 53% | 1022.5 hPa | 0 mm | - | 646 W/m² | - |
| 1777823804 | 15.56° C | 51% | 1022.5 hPa | 0 mm | - | 640 W/m² | - |
| 1777823502 | 16.11° C | 51% | 1022.5 hPa | 0 mm | - | 633 W/m² | - |
| 1777823199 | 16.11° C | 52% | 1022.7 hPa | 0 mm | - | 626 W/m² | - |
| 1777822897 | 15.56° C | 53% | 1022.8 hPa | 0 mm | - | 617 W/m² | - |
| 1777822594 | 15.56° C | 54% | 1022.6 hPa | 0 mm | - | 609 W/m² | - |
| 1777822292 | 15.56° C | 51% | 1022.9 hPa | 0 mm | - | 600 W/m² | - |
| 1777821989 | 15° C | 57% | 1022.9 hPa | 0 mm | - | 590 W/m² | - |
| 1777821687 | 15° C | 53% | 1022.9 hPa | 0 mm | - | 472 W/m² | - |
| 1777821384 | 15° C | 51% | 1023 hPa | 0 mm | - | 384 W/m² | - |
| 1777821081 | 14.44° C | 52% | 1022.8 hPa | 0 mm | - | 488 W/m² | - |
| 1777820778 | 13.89° C | 58% | 1023.1 hPa | 0 mm | - | 398 W/m² | - |
| 1777820474 | 13.89° C | 53% | 1023.1 hPa | 0 mm | - | 371 W/m² | - |
| 1777820171 | 13.89° C | 53% | 1023 hPa | 0 mm | - | 122 W/m² | - |
| 1777819868 | 13.33° C | 59% | 1023 hPa | 0 mm | - | 190 W/m² | - |
| 1777819566 | 13.33° C | 57% | 1023.2 hPa | 0 mm | - | 127 W/m² | - |
| 1777819263 | 13.33° C | 58% | 1023.1 hPa | 0 mm | - | 159 W/m² | - |
| 1777818960 | 12.78° C | 57% | 1023.2 hPa | 0 mm | - | 106 W/m² | - |
| 1777818656 | 12.78° C | 58% | 1023.1 hPa | 0 mm | - | 144 W/m² | - |
| 1777818354 | 12.78° C | 56% | 1023.1 hPa | 0 mm | - | 127 W/m² | - |
| 1777818050 | 12.78° C | 55% | 1023.2 hPa | 0 mm | - | 113 W/m² | - |
| 1777817747 | 12.78° C | 62% | 1023.2 hPa | 0 mm | - | 57 W/m² | - |
| 1777817444 | 12.78° C | 63% | 1023 hPa | 0 mm | - | 331 W/m² | - |
* Rain latest hour (hover to see other rain measurements)
** Current wind speed in m/s (hover to see current wind gust speed)